Lid_Strength_Index
2 2 3 3 3 4 4 4 4 4 4 3 2 2 2 2 2 4 4 4 4 4 3 3 2 4 8 10 11 8 5 6 6 5 5 6 6 7 9 10 9 10 12 12 12 12 12
2 2 3 3 4 4 4 4 4 4 4 4 3 2 2 2 3 4 3 3 4 4 3 3 4 6 10 12 9 9 9 7 7 6 6 5 6 7 9 11 10 11 11 12 12 13 13
3 2 3 3 3 4 4 5 5 5 5 5 5 4 3 3 3 4 4 4 4 4 4 4 6 10 11 12 10 9 9 8 8 7 7 6 6 7 8 11 10 11 12 12 12 12 13
2 3 3 3 3 4 4 5 5 5 5 5 5 5 5 4 4 4 4 4 4 5 5 5 8 10 13 11 8 10 9 8 7 7 6 6 6 8 9 9 11 11 11 12 12 12 13
2 3 3 3 3 4 4 5 5 5 5 6 6 6 6 4 4 5 5 5 5 6 6 7 10 11 14 9 11 10 10 10 9 8 7 7 7 9 10 10 12 12 13 13 13 12 13
2 3 3 3 3 4 4 5 5 6 6 6 6 6 5 5 5 6 5 6 7 7 10 11 12 12 13 14 12 11 11 11 10 8 8 8 8 10 10 11 15 14 14 14 14 14 14
2 3 3 3 3 4 4 5 5 6 6 7 7 6 6 6 6 6 7 9 10 10 12 16 16 15 14 12 11 12 12 11 10 10 11 12 11 13 13 13 14 14 14 15 14 16 16
2 2 3 3 3 3 4 4 5 6 7 7 6 6 6 6 6 8 9 11 13 12 15 14 15 15 14 13 13 13 11 13 12 14 14 13 15 16 14 15 15 15 15 15 15 17 17
2 2 2 3 3 4 4 4 5 6 7 6 6 6 6 6 7 8 11 11 9 11 13 15 15 15 15 14 16 15 13 14 15 16 16 16 18 18 17 16 16 16 16 17 17 17 18
2 2 2 2 3 3 3 4 5 6 7 7 7 7 6 6 8 10 11 10 9 11 13 16 16 15 14 14 16 14 14 14 15 17 17 17 17 18 17 18 18 18 18 19 19 18 18
1 2 2 2 3 3 3 4 5 6 6 7 7 7 7 7 10 11 11 10 9 10 16 16 16 13 14 15 15 15 14 14 16 17 17 19 19 18 18 19 18 19 18 19 19 19 20
1 2 2 2 3 3 3 4 4 5 7 7 7 7 8 9 9 10 9 9 9 13 17 17 16 16 16 16 16 15 15 14 15 16 16 18 17 17 18 17 17 17 18 18 19 19 19
1 2 2 2 3 3 3 3 4 5 6 7 7 8 9 10 11 9 9 9 12 15 16 17 17 17 17 17 17 16 17 17 17 17 18 18 18 17 17 18 17 17 18 16 18 17 17
1 1 2 2 2 3 3 3 4 5 7 7 8 10 12 12 11 9 9 10 15 15 16 17 17 17 17 18 17 17 17 17 17 17 17 17 17 18 17 18 18 18 17 16 20 18 17
1 1 2 2 2 2 3 3 4 5 6 8 9 12 13 12 11 9 10 13 13 13 15 17 17 17 18 18 17 17 17 17 17 17 15 17 18 18 17 16 16 17 17 16 19 21 20
1 1 1 2 2 2 3 3 4 5 6 8 12 13 14 12 11 10 10 12 13 15 16 16 14 16 16 17 16 16 16 17 17 17 16 17 15 18 17 16 16 16 16 17 16 19 19
1 1 1 1 2 2 3 3 4 6 7 9 11 13 13 12 12 11 12 12 15 16 15 15 14 16 15 16 16 16 15 17 16 17 15 15 15 18 18 18 17 17 17 18 17 17 18
0 1 1 1 2 2 3 3 4 6 8 9 11 15 12 12 13 13 12 13 15 16 16 16 15 15 15 16 16 16 15 16 15 15 16 16 15 16 17 18 18 17 17 15 16 18 18
-0 -0 0 1 2 2 3 3 5 7 8 10 12 13 11 12 13 14 15 16 16 16 16 16 16 15 16 16 15 15 15 16 15 15 16 15 16 16 17 18 18 18 17 19 19 18 17
-0 -0 -0 0 1 2 2 3 5 6 7 8 12 15 14 13 13 13 15 16 17 15 16 16 16 15 16 17 16 15 15 16 16 15 13 14 16 14 15 15 16 18 18 17 17 18 15
-0 -0 0 0 1 1 2 3 5 6 6 7 10 13 13 17 15 13 13 14 16 17 15 15 16 15 14 16 17 16 14 16 16 14 15 14 16 18 16 17 18 17 16 16 18 15 16
0 1 1 -0 0 0 2 4 5 6 5 8 12 13 14 15 14 14 13 15 14 16 16 16 15 14 14 13 12 14 15 16 14 16 15 18 16 20 20 19 21 22 19 17 16 16 15
1 1 0 0 1 1 2 4 5 6 5 9 11 11 11 15 15 14 13 13 14 14 15 14 13 14 16 15 15 17 17 16 15 15 16 17 17 17 17 21 22 21 19 17 16 16 16
1 1 1 1 1 2 2 4 5 5 6 8 10 9 12 15 14 13 13 13 13 13 14 16 14 12 17 17 16 16 18 19 18 19 17 17 16 15 17 20 20 17 21 19 16 17 16
1 1 1 1 1 2 3 4 5 4 7 9 10 9 12 15 14 15 14 14 14 15 15 15 17 17 16 14 13 15 17 19 22 22 20 18 15 16 19 20 17 14 21 19 19 17 16
1 2 1 1 2 2 3 4 5 4 7 9 11 9 11 14 14 13 14 13 13 14 16 18 17 15 14 12 13 17 17 18 20 24 21 19 17 16 21 21 20 18 20 23 22 19 23
1 2 2 2 2 2 2 4 4 5 6 8 12 12 10 15 16 14 12 11 11 13 16 18 17 16 15 13 15 16 17 22 18 20 22 20 19 19 19 19 18 15 20 23 19 17 24
2 2 2 2 2 3 2 3 4 4 6 9 13 13 9 14 17 17 17 13 13 12 13 18 16 17 15 15 14 15 17 19 19 21 21 20 21 20 19 20 22 20 22 18 20 24 23
2 2 1 2 3 3 3 3 4 5 6 7 10 11 13 14 18 17 17 16 17 17 15 18 15 16 13 14 16 18 18 21 18 17 23 19 15 16 16 16 21 20 22 23 23 21 22